Wind_Gust
13 16 14 14 15 14 12 13 13 12 13 14 15 15 17 18 19 14 14 17 10 18 20 19 22 22 23 22 22 21 20 20 21 22 22 20 20 20 17 17 16 16 18 14 13 12 13 13 14 17 19 22 22 19 23 27 26 28 31 30 28 22 22 22 25 26 28 30 25 25 26 26 26 26 25 24 24 25 24 23 24 24 25 25 26 25
17 13 15 13 12 12 13 11 10 11 13 14 17 17 20 17 21 12 18 10 9 15 22 20 21 23 23 22 23 22 22 23 22 21 20 18 18 15 15 16 17 16 15 14 16 12 11 12 12 14 18 19 24 25 25 30 33 26 27 29 28 24 23 24 24 25 29 29 31 30 31 31 28 27 27 26 25 24 24 24 24 23 23 24 24 25
12 16 15 12 13 14 12 9 10 13 15 15 17 17 19 17 15 20 15 10 12 17 23 21 25 25 24 24 22 22 22 20 19 16 17 16 17 16 14 14 15 16 18 18 18 12 12 12 10 13 15 19 22 22 26 27 28 28 29 29 26 29 29 24 24 26 30 27 24 27 26 26 26 24 23 24 23 23 24 24 25 25 24 24 25 26
12 16 15 11 13 15 11 9 11 14 16 15 15 17 18 17 18 18 11 11 19 24 24 22 25 25 22 19 18 17 15 15 13 12 14 14 15 15 16 15 16 18 19 18 18 17 15 12 10 11 15 18 18 20 22 25 30 32 31 27 26 27 26 26 26 24 20 22 21 23 23 23 21 23 22 20 21 22 23 25 25 25 25 26 27 27
19 17 13 12 11 11 12 11 14 15 17 11 14 17 18 14 17 20 22 24 23 25 19 17 24 27 13 14 14 14 9 10 11 11 13 13 13 13 13 14 16 17 17 19 20 17 17 16 14 15 17 15 19 22 24 26 28 28 29 29 29 27 28 28 27 24 21 21 18 20 20 20 20 19 21 24 27 25 25 26 25 29 27 28 28 28
17 16 12 11 13 11 11 12 17 17 20 15 11 12 15 17 18 17 18 21 25 20 19 21 30 22 13 14 14 13 14 11 13 15 18 16 16 17 17 18 18 18 18 19 19 19 19 18 17 14 13 16 19 24 25 26 29 25 27 28 29 28 31 30 29 30 25 25 25 25 25 26 25 26 26 28 29 30 30 31 25 25 26 27 26 27
16 12 11 12 11 11 12 12 14 16 19 20 16 13 14 17 19 19 19 19 20 21 17 17 19 37 13 13 13 17 15 12 15 17 19 20 21 22 22 22 21 21 22 21 20 20 20 20 18 16 13 16 19 22 22 25 25 26 26 27 30 30 30 31 31 31 30 27 28 28 29 28 29 29 29 26 26 24 26 24 23 26 26 26 27 26
14 15 14 15 15 16 16 19 18 17 19 16 16 16 17 18 19 19 19 18 21 15 19 12 17 25 35 18 15 14 12 12 15 17 21 22 22 22 21 21 20 22 21 22 21 21 20 19 19 19 16 14 19 19 22 26 25 27 29 27 29 30 29 29 30 34 33 30 29 29 29 28 32 29 28 28 32 25 24 26 25 24 25 27 29 29
12 16 17 19 18 20 20 18 16 13 18 18 17 18 19 19 18 18 18 19 15 15 18 14 12 20 21 17 15 14 15 17 19 22 21 23 24 22 22 24 22 22 22 22 23 22 21 21 20 19 18 15 17 16 21 24 27 29 29 29 27 29 28 27 28 31 32 30 32 32 33 32 35 31 30 27 27 26 26 25 25 26 26 26 27 29
15 14 15 17 20 21 18 16 11 14 18 14 20 21 20 17 16 15 16 14 10 14 15 17 17 21 25 14 14 17 20 23 23 22 23 25 25 25 25 24 25 24 23 22 22 22 21 20 19 18 17 15 15 15 16 20 24 28 28 25 27 27 26 27 27 33 37 34 31 29 32 31 33 31 28 24 27 26 27 28 28 27 28 28 27 29
15 10 13 21 20 19 18 15 9 11 15 20 19 19 14 12 11 11 12 10 13 6 16 15 13 18 20 22 24 21 25 24 23 21 23 25 26 26 26 25 25 25 24 25 24 22 21 19 18 19 18 17 15 14 14 17 23 25 27 26 32 32 28 27 31 29 31 32 31 31 31 34 33 33 33 30 29 28 27 29 28 27 27 26 28 28
17 14 11 15 13 19 17 16 14 12 17 19 20 20 16 13 17 16 13 13 11 13 14 15 15 17 17 17 22 23 22 22 23 25 28 28 28 29 26 27 26 23 23 24 24 25 24 23 21 20 20 19 17 15 15 16 18 23 25 26 31 30 29 28 29 28 30 29 32 28 33 31 33 31 34 35 34 30 29 29 29 28 27 28 27 27
20 22 13 11 10 21 24 16 19 12 19 20 21 21 17 16 16 12 13 16 16 19 17 17 18 17 16 21 22 21 22 24 25 28 29 30 29 27 27 28 26 25 23 24 24 23 22 22 23 21 20 19 17 17 15 15 17 20 24 27 30 30 32 32 29 31 31 31 34 35 29 29 30 33 30 32 30 28 29 32 29 26 29 28 28 31
18 14 20 16 11 20 21 26 26 19 23 23 26 24 21 21 19 17 20 16 16 14 17 19 17 15 18 18 21 22 24 27 27 29 28 28 29 29 28 26 26 25 23 23 22 22 21 22 22 21 20 19 18 16 16 14 15 17 21 28 29 32 32 31 30 31 31 33 35 34 31 29 27 31 35 29 29 28 29 28 30 27 27 28 31 29
12 16 22 20 19 16 19 21 19 17 20 24 18 19 18 19 14 13 20 18 22 24 25 18 15 20 24 17 17 25 26 28 30 32 30 29 28 28 28 27 26 23 23 22 23 24 24 23 22 21 20 19 18 17 16 14 15 16 19 23 30 30 30 32 35 32 34 36 32 31 34 30 28 29 35 36 27 27 27 25 26 28 24 27 29 28
13 17 15 13 12 13 18 18 19 19 15 22 20 14 18 18 11 12 16 16 16 21 19 22 19 20 23 18 21 28 30 31 34 34 34 33 32 31 31 30 27 26 25 25 25 26 24 24 22 22 20 20 19 18 16 14 15 15 18 20 24 31 28 33 33 33 36 37 34 30 33 35 31 25 28 30 25 29 25 23 24 25 23 23 26 24
14 16 11 11 8 13 15 18 24 25 24 22 17 22 19 12 10 10 11 12 14 18 16 16 18 20 20 16 25 31 33 35 36 37 37 36 34 32 31 30 29 29 27 26 26 26 26 24 24 23 21 21 21 20 18 17 15 15 17 17 19 24 29 30 33 35 33 33 31 33 35 34 29 32 30 34 28 24 24 23 23 21 20 19 24 26
13 16 10 10 15 11 8 12 20 22 21 13 23 19 12 12 13 11 15 12 13 15 16 17 20 24 27 23 30 32 34 36 38 38 38 35 35 33 33 32 32 31 30 28 25 25 25 24 24 24 23 22 21 21 22 20 15 15 16 15 18 21 25 31 34 33 34 33 33 34 35 33 31 34 33 33 30 27 28 27 25 20 22 24 25 25
14 11 14 10 9 10 12 16 14 19 21 22 18 14 17 15 14 18 14 18 17 18 23 20 19 17 25 33 37 39 42 40 38 37 36 36 36 34 33 33 31 30 30 30 28 27 26 25 25 26 26 26 24 21 20 22 19 15 15 16 17 22 23 25 31 32 33 32 33 34 32 32 33 34 34 30 32 27 26 28 29 28 24 24 24 27
10 9 16 11 11 12 10 15 18 19 17 14 10 18 11 11 8 14 16 9 16 15 20 19 21 23 25 32 32 32 35 35 39 36 34 34 34 34 33 32 31 31 30 30 28 27 28 28 25 25 25 27 27 25 23 21 20 17 17 16 18 18 19 21 25 28 33 34 32 30 28 29 34 35 34 29 28 26 31 32 30 28 23 22 24 22
7 12 10 17 11 14 13 18 18 18 22 21 21 22 17 15 12 14 7 13 15 16 17 20 24 20 22 26 26 26 29 31 34 38 35 33 31 30 29 30 30 30 29 29 29 28 28 27 26 25 24 26 25 22 21 20 20 19 16 16 18 20 20 22 24 26 29 31 30 30 29 28 31 32 36 33 31 31 31 30 28 27 25 20 17 19
9 6 9 13 18 12 16 15 15 16 16 15 17 17 17 17 18 14 13 11 14 14 18 19 22 22 17 26 24 23 29 31 31 33 34 32 31 29 28 27 28 29 27 26 26 27 27 25 25 25 25 24 25 24 22 22 19 18 17 17 18 19 20 23 25 25 26 26 29 31 31 31 30 32 34 30 28 28 29 23 24 23 26 19 19 20
14 11 10 10 12 14 15 13 12 13 12 15 17 13 14 16 10 11 13 16 14 15 15 12 19 15 13 26 25 26 30 30 28 28 32 30 29 28 30 28 28 27 28 29 28 27 26 26 25 26 26 25 25 25 23 21 20 20 18 18 18 21 21 24 25 25 25 24 25 27 29 29 30 32 30 30 28 28 28 23 22 23 24 25 25 23
7 11 9 11 13 16 14 12 12 10 9 10 15 13 14 13 13 11 12 11 11 14 15 18 15 20 20 26 26 29 31 29 33 27 26 27 26 27 27 27 28 29 28 28 29 28 28 26 25 26 24 25 24 23 23 22 21 21 19 19 18 22 23 22 23 23 24 25 25 25 26 27 28 29 30 31 29 31 31 28 24 25 28 26 25 25
12 10 12 8 13 14 15 14 10 11 12 14 15 14 12 10 9 11 8 9 10 11 14 19 20 24 26 28 28 31 35 36 33 30 27 27 25 27 27 28 29 30 31 32 32 31 29 27 27 28 28 27 26 26 25 24 23 22 20 19 19 22 22 23 21 21 24 24 25 25 28 27 27 28 30 30 29 29 30 29 30 27 28 28 28 26
12 9 11 11 11 13 16 17 19 16 15 15 12 11 11 14 15 12 11 9 13 10 14 16 25 24 29 30 32 33 36 38 35 30 28 27 27 28 28 28 32 33 33 32 34 33 32 30 29 28 26 27 26 27 26 26 24 23 21 19 18 20 20 21 22 23 24 25 26 26 28 29 27 29 30 29 30 31 29 26 25 25 23 26 28 26
10 10 9 10 14 13 12 11 11 8 9 10 13 12 14 13 12 11 13 15 18 15 18 15 19 30 31 32 33 35 34 35 35 32 33 32 29 29 29 30 30 31 32 33 31 32 31 31 31 28 27 27 26 24 25 26 26 24 22 21 19 18 19 19 22 25 26 26 27 27 27 30 31 32 31 33 31 30 29 27 26 25 24 24 26 27
7 9 8 10 11 11 11 9 11 8 9 10 9 13 12 13 13 7 13 15 13 18 16 20 25 30 30 31 32 35 34 34 33 30 31 31 29 31 30 30 29 36 35 35 35 34 34 31 30 30 29 29 29 28 27 25 25 24 23 23 21 20 18 18 22 25 27 27 26 28 29 30 30 30 32 31 31 29 29 30 26 27 25 26 28 28
12 10 11 8 7 13 12 12 10 10 11 10 10 10 13 13 12 11 10 11 11 15 22 25 24 25 28 26 30 32 31 31 30 30 27 26 28 29 32 32 35 36 37 37 36 36 35 33 32 32 31 30 29 28 28 28 25 23 22 22 22 21 20 19 21 24 26 27 28 29 29 28 28 29 30 30 31 30 31 32 28 26 26 27 28 28
14 9 11 9 11 13 11 10 10 10 10 13 12 9 10 11 11 9 10 12 12 15 19 22 21 23 22 27 30 30 28 28 29 26 27 27 29 29 32 29 33 34 36 37 36 36 34 33 32 31 31 30 29 29 29 28 25 24 24 24 23 22 21 20 20 23 25 28 31 31 28 29 26 27 28 30 30 30 31 32 31 28 27 29 31 29
13 8 9 7 6 10 10 9 11 12 12 15 12 10 9 10 10 9 10 11 12 15 15 20 21 22 20 25 28 27 27 27 28 29 28 26 28 30 30 29 31 33 35 36 36 37 34 33 33 31 30 30 29 29 29 26 25 25 24 24 24 24 23 23 20 21 24 28 29 29 29 28 28 28 28 29 30 30 31 32 32 29 29 29 29 30
11 9 10 9 13 11 13 10 12 12 14 16 14 11 10 12 13 13 14 11 11 16 18 18 21 29 31 31 28 26 28 30 30 29 28 27 28 31 30 29 31 34 35 36 37 36 35 34 33 31 31 31 29 28 27 28 27 26 25 26 26 26 25 25 22 23 25 26 26 27 27 27 28 28 30 29 29 30 31 31 31 31 32 34 32 32
12 13 10 8 15 9 7 11 13 12 15 16 14 11 8 11 11 13 12 11 13 10 15 25 22 27 30 31 32 30 29 29 29 28 28 26 28 30 30 29 31 33 34 34 37 36 35 33 31 31 30 28 30 30 27 27 27 26 26 27 28 27 26 25 25 24 25 26 26 27 27 26 27 28 29 29 30 29 29 30 30 32 31 33 33 30
12 13 11 8 12 11 12 15 12 15 18 13 14 10 10 9 13 14 18 17 17 11 17 18 24 26 27 29 29 30 30 31 29 27 24 25 28 28 29 30 31 32 33 34 36 35 33 34 33 32 28 26 28 29 27 25 24 26 26 27 26 26 26 26 25 25 25 26 26 26 26 26 27 28 28 28 28 28 29 30 32 30 31 31 31 31
8 10 11 8 15 16 12 15 15 16 13 14 10 9 8 11 12 16 19 16 15 15 15 20 22 25 26 26 26 27 27 28 27 25 22 23 26 28 29 29 32 32 33 33 35 34 32 32 31 31 28 28 27 27 26 26 25 24 26 27 26 26 27 27 27 23 23 23 24 25 24 26 27 28 29 28 28 28 29 30 30 30 29 31 32 32
10 13 8 13 13 15 15 9 10 11 9 9 13 11 9 11 12 16 15 11 11 13 16 21 23 25 25 25 25 25 26 29 26 18 20 24 26 28 29 29 30 31 32 33 32 31 33 32 31 30 28 26 26 26 25 27 27 27 25 24 24 25 26 27 27 27 26 26 23 25 26 26 27 27 27 29 29 30 32 31 30 31 30 29 30 31
16 14 11 14 11 12 14 15 20 16 11 9 8 10 12 10 14 13 14 14 10 16 17 22 24 24 25 25 25 26 27 27 20 16 19 25 27 27 28 29 28 28 28 29 29 28 28 27 27 29 26 25 26 28 27 28 28 26 25 24 24 24 24 24 24 24 25 24 24 25 28 27 27 26 26 28 29 31 31 31 31 30 31 32 32 33
17 19 11 13 8 8 16 18 18 14 14 10 10 11 9 9 10 11 12 14 10 16 17 21 24 24 25 24 26 27 26 24 25 22 22 27 28 27 27 25 26 27 28 29 28 30 31 28 27 27 28 26 27 27 27 27 28 27 25 25 25 26 25 24 25 25 25 25 24 24 24 21 25 28 28 27 29 30 30 30 30 31 30 31 31 32
15 16 14 13 12 10 12 16 16 13 12 11 11 9 9 10 11 14 14 12 17 18 19 21 22 23 23 25 26 26 26 26 26 25 26 29 29 28 27 25 25 25 26 27 27 28 29 27 26 25 27 27 28 29 27 27 27 27 26 26 26 23 24 25 27 26 26 25 25 24 23 21 21 21 22 26 29 28 28 28 28 28 30 30 30 31
16 15 13 18 13 16 15 16 18 14 10 6 10 11 10 11 16 14 18 18 19 21 20 19 20 22 21 21 23 24 24 24 29 29 28 28 27 25 25 26 26 26 26 30 26 26 25 25 27 30 29 30 30 29 30 28 28 25 26 26 25 26 25 26 26 25 24 24 24 23 22 20 21 26 27 26 27 26 28 25 23 22 24 27 30 29
15 14 14 18 18 12 10 18 19 21 16 12 11 11 12 12 12 13 21 23 19 20 19 17 18 18 19 20 20 24 21 22 25 27 27 26 26 25 24 24 24 25 26 26 28 25 27 26 26 29 28 30 31 29 29 29 28 27 27 25 25 27 28 28 27 25 25 25 25 23 22 20 19 20 22 22 22 22 22 21 22 22 21 25 25 28
15 13 14 14 18 20 15 19 20 19 14 15 13 11 15 11 14 17 17 13 16 17 17 16 16 16 17 18 18 20 22 23 24 24 24 25 25 24 23 24 25 26 25 25 25 28 29 29 26 27 28 28 32 29 29 30 30 29 28 27 28 28 29 29 27 26 25 24 24 24 22 20 20 19 19 20 19 20 21 22 23 24 24 23 23 24
14 12 15 17 15 13 10 17 17 19 8 11 17 14 13 10 13 14 16 14 13 14 15 15 15 15 16 19 17 18 21 22 23 23 24 23 23 23 23 23 24 25 26 28 29 28 30 30 31 28 27 28 29 28 28 30 28 29 29 29 29 29 28 28 28 27 25 24 24 23 23 22 20 19 17 18 18 19 20 19 21 22 23 23 22 23
9 17 19 17 15 19 15 16 16 14 18 19 16 11 12 16 15 13 15 17 12 12 13 16 13 15 16 17 19 19 19 21 21 23 24 23 22 22 22 22 23 24 25 26 27 28 29 29 29 28 25 27 29 28 28 31 30 31 32 31 31 29 28 28 28 28 27 25 24 23 23 23 22 20 18 18 18 19 21 20 21 22 23 24 23 23
17 23 13 15 12 17 19 14 15 10 11 16 15 14 15 11 10 9 10 13 15 13 9 14 14 15 15 16 17 18 20 19 22 22 23 23 23 22 23 23 23 24 25 27 27 28 28 30 29 29 28 27 28 28 28 28 30 32 33 34 32 32 31 29 28 28 27 27 26 25 25 23 23 22 20 21 19 20 22 23 21 22 23 23 24 25
10 10 8 15 22 17 23 24 20 19 15 15 16 16 15 12 12 10 10 13 9 11 11 13 13 15 16 15 19 17 18 20 22 23 23 22 22 21 21 22 23 24 24 26 28 29 29 28 26 27 29 28 28 30 29 29 29 32 34 34 32 32 30 30 28 28 28 27 26 27 27 26 24 22 24 23 21 20 21 22 23 25 23 24 26 27
13 11 16 20 12 10 19 11 13 13 10 12 14 13 13 13 12 11 10 11 10 10 11 10 11 14 15 16 16 17 19 20 21 23 22 22 22 21 21 22 23 24 25 27 28 28 30 28 29 28 28 28 29 30 29 27 28 29 31 33 31 31 29 28 27 26 26 28 28 25 26 26 27 29 25 21 21 20 20 22 23 24 24 25 25 26
16 13 18 22 22 25 24 18 15 13 15 15 17 16 15 15 14 12 11 9 9 9 11 10 10 13 13 15 14 16 18 19 20 23 24 22 22 21 22 22 23 24 24 24 26 27 27 28 26 27 27 28 28 28 28 27 28 30 33 30 28 30 29 27 27 27 27 28 27 26 26 28 20 27 27 25 24 23 21 22 24 26 28 29 30 30
17 13 14 11 22 23 21 21 22 20 21 18 14 15 13 11 12 12 12 11 11 11 11 11 9 12 13 14 14 15 18 18 18 20 23 22 21 21 21 23 23 22 23 25 25 25 27 25 26 26 26 27 26 27 27 27 28 31 33 30 29 30 30 29 26 26 27 29 28 27 28 28 28 28 28 28 26 24 24 24 25 28 29 28 30 30
22 26 22 21 23 23 23 19 13 18 16 15 13 16 16 14 13 12 12 13 12 11 10 11 12 11 13 12 13 14 17 18 17 18 20 21 20 20 21 22 22 23 23 23 24 23 23 23 24 25 26 27 27 29 28 28 29 31 31 28 26 27 30 31 30 27 27 27 26 28 30 28 28 27 27 28 29 31 29 17 19 24 30 30 21 25
23 21 21 23 22 20 13 13 12 17 18 17 16 13 13 14 14 15 15 13 11 10 9 10 11 12 12 12 11 14 15 18 18 17 18 19 20 20 22 21 23 24 25 23 22 24 25 25 25 24 26 28 28 29 29 28 31 31 29 27 26 26 25 25 27 26 25 25 26 28 29 29 29 28 28 29 29 31 33 35 29 22 28 30 28 28
Wind_Speed
3 4 2 4 4 5 4 5 5 4 5 6 6 7 7 7 8 6 6 2 2 7 9 8 10 11 12 12 12 11 11 11 11 12 11 10 10 10 8 7 7 8 8 6 5 4 3 3 3 5 5 7 9 8 10 13 13 14 14 13 13 12 11 9 10 11 11 12 11 11 12 12 12 12 12 10 10 9 9 10 10 10 9 10 11 11
7 2 4 5 5 5 5 4 3 4 5 6 8 8 8 7 9 3 7 3 1 5 8 10 10 11 12 12 12 11 11 12 11 11 11 10 8 7 7 8 7 6 5 6 5 2 2 3 1 3 4 6 8 9 11 15 14 13 13 13 12 10 11 9 10 10 9 11 13 13 13 11 11 11 11 12 12 11 10 10 11 10 10 10 11 11
3 5 5 4 5 6 4 2 3 6 7 6 6 6 7 5 6 10 6 1 3 6 8 10 12 12 13 13 11 10 9 4 5 5 6 5 5 5 4 3 3 4 6 7 7 6 4 3 3 2 4 5 7 9 11 12 14 14 13 13 12 9 10 11 11 10 13 13 12 13 12 12 11 10 10 10 11 11 12 12 11 11 10 11 11 12
3 5 7 4 5 7 3 2 4 6 7 5 5 6 6 7 7 5 2 3 7 8 10 10 11 10 11 7 2 3 3 6 5 5 3 4 5 7 7 7 6 7 7 9 9 8 7 6 3 3 3 4 5 7 11 11 13 13 14 14 13 12 12 12 13 13 12 12 12 11 12 12 10 10 10 10 10 11 12 12 11 11 11 12 11 13
7 7 5 5 4 4 4 2 6 5 6 3 5 7 7 5 7 8 8 10 12 14 10 6 8 7 2 5 3 5 1 1 3 0 3 5 6 6 5 6 8 9 9 9 10 9 9 8 7 5 5 4 5 7 9 12 12 12 17 16 16 14 14 16 16 15 11 7 8 9 10 10 10 9 10 10 10 11 11 11 12 13 13 12 12 12
7 7 5 3 3 3 4 1 6 7 8 4 2 3 7 9 9 9 9 10 8 7 7 5 7 2 4 5 4 4 4 2 5 7 9 8 8 8 9 9 10 10 9 10 10 11 10 10 9 7 6 5 4 6 8 9 12 13 14 16 16 13 12 15 17 18 14 12 11 12 12 12 12 12 11 12 12 12 12 13 12 13 13 14 13 13
5 4 4 4 4 3 2 2 6 8 7 8 5 5 6 9 10 10 10 8 7 6 3 7 6 3 3 4 2 5 3 4 6 8 9 10 10 11 11 11 10 11 11 11 11 11 11 11 10 8 6 7 6 5 7 8 10 13 13 14 16 15 13 15 16 19 14 14 12 16 16 15 15 14 13 12 12 12 11 11 11 11 13 14 14 14
4 6 4 5 5 5 5 6 7 7 7 2 7 8 8 9 10 9 9 8 7 4 5 1 4 5 3 6 6 5 2 4 4 7 9 11 12 12 11 11 11 10 11 10 11 12 11 11 11 11 8 6 7 7 6 7 9 12 14 15 16 15 15 14 14 17 15 14 14 17 18 14 14 14 13 14 13 12 11 13 13 12 13 14 14 14
5 6 8 9 7 7 7 7 6 5 6 6 9 9 10 9 8 9 7 6 4 5 2 2 3 6 1 6 7 3 6 7 10 9 9 12 13 12 12 11 12 11 11 11 10 11 12 12 11 10 9 7 7 7 6 6 8 9 11 13 14 16 16 13 16 16 17 15 15 14 12 11 11 11 11 11 11 12 12 13 11 12 12 12 14 15
5 7 7 8 8 8 8 6 4 6 7 6 11 12 9 7 7 7 5 4 1 4 2 5 6 6 3 4 5 8 9 8 9 10 12 14 14 13 13 12 12 11 11 11 11 11 11 11 10 10 9 8 6 7 7 7 7 9 10 13 15 16 13 12 15 16 15 17 14 15 15 14 10 9 11 9 11 12 11 13 13 12 11 10 11 14
6 3 5 8 8 8 7 2 2 4 7 10 9 8 3 1 2 3 3 1 2 1 5 6 5 6 3 9 10 7 9 11 10 9 11 14 15 15 13 13 12 11 11 11 12 11 11 10 10 10 10 9 7 6 7 6 7 8 10 11 14 15 12 12 14 16 17 16 13 14 14 14 14 14 13 12 12 11 12 13 14 12 10 11 12 13
7 6 2 5 6 8 9 1 5 5 8 10 6 7 2 3 6 5 3 4 2 4 4 6 6 7 3 5 6 7 9 10 12 14 16 16 16 15 15 14 14 12 12 13 12 13 12 11 11 11 11 10 9 7 7 6 6 7 9 10 13 14 16 13 14 17 18 16 15 12 11 14 14 14 12 14 14 14 15 14 13 12 11 11 12 11
7 6 3 4 2 12 11 6 3 2 9 8 8 9 5 3 0 2 1 2 5 5 7 6 7 1 5 5 8 9 11 13 14 14 16 17 17 16 15 16 14 12 13 12 12 12 12 11 11 11 11 10 9 7 7 7 7 7 8 11 12 14 15 15 15 17 16 16 15 14 14 12 11 13 15 14 15 15 14 13 12 12 11 12 13 12
6 6 7 1 4 9 10 7 7 6 10 10 11 10 7 4 5 5 5 3 3 5 7 6 2 3 4 6 9 11 14 15 16 16 15 15 17 17 16 14 14 13 13 11 11 11 11 11 11 11 10 9 9 8 7 6 6 6 6 9 12 14 14 15 17 18 14 14 13 14 12 11 10 10 13 15 13 13 12 12 12 11 12 13 13 14
3 4 7 9 6 7 8 8 7 5 8 9 8 7 5 6 4 5 6 5 5 5 6 9 1 5 7 3 8 14 15 17 17 17 18 17 17 17 16 15 14 13 12 11 11 12 12 12 13 11 10 9 9 9 7 6 5 6 7 8 11 13 14 15 17 17 19 16 17 14 12 13 9 9 10 13 11 11 12 13 12 12 11 10 11 13
5 5 5 5 4 5 8 9 8 7 3 6 8 5 6 6 3 3 5 3 4 3 4 7 5 6 6 3 11 15 17 18 19 19 19 18 17 18 16 16 15 13 13 12 13 14 14 13 13 11 10 9 8 9 8 7 6 5 6 8 9 12 14 15 16 18 18 20 17 17 15 13 12 11 10 10 9 10 12 13 12 12 11 8 10 12
3 4 4 3 1 5 6 9 10 12 5 5 5 8 7 1 2 1 4 2 7 7 6 1 3 3 5 3 13 18 18 19 18 19 19 18 18 19 17 17 16 16 14 13 13 13 15 14 13 12 12 10 9 9 9 9 7 8 7 8 10 10 12 15 17 18 18 18 19 16 16 15 15 12 13 13 14 13 12 13 11 10 10 9 9 9
4 5 2 2 5 4 1 4 10 12 8 3 6 7 3 4 5 3 3 2 3 5 2 4 6 3 8 5 13 17 20 21 21 20 20 18 18 19 17 17 18 17 17 17 15 14 14 14 14 13 12 13 12 11 10 9 8 7 7 8 9 10 11 13 15 17 16 18 19 19 16 16 15 15 16 13 14 13 14 14 12 10 9 10 10 10
4 3 5 2 1 3 5 7 4 10 11 9 6 2 5 1 1 4 2 3 5 5 4 5 6 3 9 9 14 20 22 23 22 20 20 20 19 17 18 19 17 16 15 15 16 13 13 13 14 14 15 15 13 11 10 9 8 6 6 7 9 11 11 12 12 15 15 17 15 15 18 19 19 17 14 15 11 11 10 14 13 11 10 10 11 12
2 2 4 3 3 4 1 3 4 5 8 6 3 6 3 2 1 2 4 1 3 5 7 6 9 5 8 9 15 17 18 18 19 17 20 19 18 16 16 16 16 15 14 15 15 14 12 13 14 14 14 15 14 12 10 8 7 8 7 7 8 9 10 11 13 13 16 17 16 16 16 16 18 18 17 14 11 8 10 11 12 12 12 11 12 13
1 2 0 5 4 4 1 5 6 6 6 5 6 7 4 2 2 1 1 3 4 5 6 6 7 6 6 10 13 13 16 17 17 17 16 17 18 17 17 15 14 14 13 13 13 14 15 13 13 14 13 13 13 11 10 8 8 7 6 6 7 8 9 11 11 13 14 14 16 17 17 15 16 17 15 15 14 16 16 15 15 14 11 7 9 10
2 1 1 2 3 2 5 6 7 7 6 5 5 4 5 4 1 1 4 2 3 4 4 5 7 4 4 9 11 12 13 15 16 15 15 16 18 17 14 16 15 14 15 14 13 14 14 14 12 13 12 11 11 11 10 10 8 8 8 7 7 7 7 8 10 11 13 14 14 16 17 16 16 16 16 18 18 15 15 14 14 12 13 10 9 11
4 3 2 0 3 5 6 6 4 6 5 7 6 4 3 4 2 3 4 5 3 4 5 3 7 4 3 11 11 12 12 14 13 13 11 12 14 15 15 16 16 15 14 15 16 15 14 14 15 13 15 14 13 11 11 10 9 9 9 9 8 8 7 7 7 9 10 12 13 15 15 15 14 13 15 17 14 17 16 12 10 12 14 13 11 11
1 2 2 2 4 7 6 5 3 2 3 3 5 5 5 4 5 3 3 3 3 5 4 5 5 4 9 12 12 14 14 13 12 13 11 12 10 15 15 16 16 17 16 16 15 15 15 15 14 13 13 13 12 13 12 10 10 9 8 8 8 8 9 8 7 8 9 11 13 14 14 15 16 15 12 12 11 17 18 14 11 11 13 14 13 13
3 1 4 1 3 3 5 3 2 2 2 4 4 4 4 3 1 1 2 1 2 4 3 5 6 7 11 12 13 15 16 15 16 16 12 12 11 13 14 14 16 17 18 19 18 18 17 16 15 14 15 14 14 13 13 13 11 10 9 8 8 8 9 9 8 7 8 10 12 13 13 15 14 15 15 16 15 18 17 15 14 11 14 12 11 14
3 3 3 3 4 3 2 0 1 1 2 3 4 4 4 3 3 3 3 1 5 4 4 5 7 8 11 13 14 16 18 18 16 17 15 12 12 15 15 15 14 15 16 20 21 20 20 17 15 15 15 14 14 13 13 14 13 10 9 9 9 9 8 9 9 8 8 9 11 12 14 14 14 14 17 17 16 19 16 14 14 11 12 11 13 13
3 3 2 3 5 4 4 3 4 2 2 1 4 3 3 1 1 4 4 5 5 5 6 2 5 13 15 16 17 19 17 19 18 18 17 15 15 14 16 16 15 14 15 18 19 18 18 19 19 17 16 14 14 13 13 13 13 12 10 10 9 8 8 8 9 10 9 9 11 11 13 15 14 14 14 14 16 16 14 15 15 14 13 12 13 12
2 2 0 4 3 4 4 2 0 2 2 3 1 3 1 2 2 3 5 4 2 7 6 7 13 11 14 15 16 19 19 18 16 16 16 15 15 16 16 17 19 18 19 18 18 21 21 19 18 18 17 16 15 14 13 13 11 12 10 10 10 9 8 7 8 10 10 10 10 11 13 13 14 15 15 14 14 14 14 16 14 14 13 11 12 13
4 3 2 2 3 5 5 3 2 3 3 4 3 3 3 2 2 2 2 4 3 5 9 11 13 12 13 13 16 17 17 16 17 16 15 14 13 15 16 18 19 21 21 21 18 20 22 20 19 19 18 16 17 16 16 14 12 11 11 10 10 10 9 8 8 10 11 11 11 12 12 12 13 14 15 15 16 16 17 17 16 14 11 10 10 10
4 2 3 2 5 6 4 3 3 4 3 6 5 2 2 3 3 3 4 5 5 8 9 11 12 12 10 12 15 17 15 15 14 13 14 15 15 17 17 16 17 19 21 21 20 20 20 20 19 19 18 18 17 17 16 14 13 12 12 12 11 11 10 9 8 10 11 12 12 12 12 12 12 13 14 15 15 16 18 17 18 16 15 14 12 12
4 1 2 0 2 2 3 2 3 5 5 7 6 3 1 3 4 1 4 5 5 8 8 12 12 11 9 13 15 16 14 14 14 15 15 14 15 17 17 16 17 20 19 21 21 22 21 21 21 19 18 17 17 16 14 13 12 13 13 11 11 11 11 12 11 10 11 12 12 12 11 11 12 14 15 14 14 15 17 17 15 14 14 14 15 16
3 1 2 2 5 2 4 2 4 5 6 8 7 4 1 4 4 3 2 4 3 4 7 9 10 10 12 14 15 14 15 16 16 16 14 13 14 15 16 16 18 19 20 21 21 20 21 21 20 19 19 19 18 16 13 13 13 12 12 13 12 13 13 14 11 11 12 12 12 12 12 12 13 14 14 16 16 16 15 15 15 15 17 18 19 17
4 4 3 2 6 3 2 5 5 5 7 6 6 5 1 2 3 4 4 4 4 4 6 9 10 12 15 15 16 16 16 16 16 15 14 15 15 15 16 16 17 17 17 20 20 20 20 19 18 19 19 17 16 17 15 13 13 13 14 14 13 12 12 12 13 13 12 12 12 12 12 12 13 14 15 16 16 15 14 15 16 17 16 18 19 17
4 5 3 2 4 4 1 5 5 6 7 2 4 3 3 2 3 6 9 8 4 3 5 7 11 14 15 15 16 16 17 16 15 14 11 12 14 15 17 16 17 17 17 17 18 18 20 17 16 17 18 16 16 15 16 14 13 13 14 14 13 13 13 14 14 13 12 11 11 11 11 11 12 14 14 15 15 15 16 17 18 17 16 16 17 17
3 3 3 1 4 6 4 6 6 8 3 6 3 2 1 2 3 5 10 5 0 1 7 11 12 14 15 14 14 15 15 16 15 13 8 12 14 14 16 15 15 16 17 18 18 17 17 18 17 18 17 17 16 15 13 12 14 13 13 14 14 13 13 13 13 11 11 11 12 12 11 10 11 13 14 14 13 14 16 16 15 16 15 15 17 17
4 4 2 4 3 5 5 2 4 2 3 2 2 4 2 3 2 6 6 3 1 6 8 10 13 13 14 14 14 13 14 17 15 5 5 12 14 14 15 14 15 16 16 15 17 17 17 17 17 17 16 15 15 14 14 14 14 15 13 13 12 12 12 12 13 14 14 14 13 10 10 11 8 11 12 14 15 15 16 17 16 17 16 15 15 15
8 5 3 4 1 4 5 5 7 6 3 3 2 2 3 0 4 5 4 4 3 7 8 10 13 13 14 14 14 14 15 14 10 4 9 14 15 16 15 14 14 15 13 13 13 14 13 13 14 15 14 14 14 15 14 14 14 14 13 13 12 13 12 12 12 13 14 13 13 13 10 9 9 7 7 11 13 12 16 17 17 16 14 15 15 15
8 8 0 4 1 2 6 6 6 4 5 4 4 5 2 1 2 2 3 4 3 7 8 11 13 14 14 14 14 15 15 10 6 6 11 15 15 16 16 15 14 14 13 12 12 12 13 13 13 14 14 15 16 16 15 15 14 13 12 12 12 13 13 13 13 13 14 13 13 13 11 9 9 9 8 4 9 14 14 12 12 14 13 14 14 15
7 7 6 4 4 3 4 6 5 5 3 4 5 3 3 1 3 2 4 1 5 8 10 11 12 13 13 13 14 14 11 9 8 9 12 16 15 15 15 14 14 14 14 14 13 15 16 16 15 14 14 15 17 17 17 17 15 13 13 12 12 12 12 13 13 13 14 14 13 13 12 10 10 10 8 8 8 6 8 10 12 12 11 13 13 14
7 5 4 7 6 6 6 6 7 3 2 3 4 4 2 2 1 3 5 1 9 10 10 10 11 12 11 12 12 11 10 9 12 12 15 15 15 14 14 15 15 15 15 14 14 15 14 13 15 16 17 18 18 17 17 16 15 15 13 13 12 13 13 13 13 13 12 13 12 11 10 10 10 9 8 10 10 9 7 8 10 10 11 13 13 11
5 5 5 7 7 3 5 6 6 6 5 3 5 4 4 3 2 4 4 5 9 9 10 8 9 9 9 10 9 9 9 9 12 14 14 14 14 14 14 14 14 15 15 15 16 17 15 14 13 14 17 16 17 17 16 16 15 15 14 13 13 14 13 14 13 12 12 12 12 11 11 9 9 10 10 8 9 9 8 7 6 6 8 11 12 10
6 5 5 6 7 8 6 7 6 6 3 6 5 4 6 4 3 3 5 4 6 8 8 8 8 7 8 9 8 8 10 12 13 13 13 13 13 13 13 14 15 15 15 15 16 16 16 16 16 16 15 15 16 16 15 15 15 15 15 14 15 15 14 14 13 12 12 12 11 11 10 10 9 9 8 8 8 7 8 9 7 7 8 8 9 14
4 3 5 6 4 4 3 6 6 8 3 5 10 6 5 4 2 4 6 5 3 6 7 7 6 6 8 9 8 9 11 12 12 13 14 13 13 13 13 13 14 14 15 17 17 17 16 16 17 16 15 13 15 14 15 16 16 16 16 16 17 15 15 14 14 14 13 12 12 11 11 10 10 8 7 8 8 9 9 4 9 11 10 10 10 10
3 6 6 5 5 6 5 5 4 2 7 10 7 3 4 6 6 5 5 7 4 4 4 6 5 6 7 8 9 9 10 11 11 12 14 13 12 12 11 12 12 13 14 15 16 17 18 16 16 16 15 13 14 15 15 15 16 17 18 19 17 15 15 14 15 14 14 13 12 12 11 11 11 10 9 8 8 8 8 9 7 7 7 8 9 10
6 9 3 5 2 5 5 3 2 2 1 4 6 6 6 4 2 3 3 5 6 4 2 5 6 7 7 8 8 9 9 10 12 12 13 13 13 12 12 12 12 13 14 15 16 17 17 17 17 16 16 14 15 15 16 15 16 19 20 20 18 18 16 16 15 14 13 14 14 13 12 11 11 11 10 10 9 9 9 8 8 8 9 8 7 8
2 3 1 5 8 8 11 12 10 9 7 7 7 7 6 4 3 3 4 5 2 3 3 4 5 7 8 7 8 7 8 11 12 12 12 12 12 12 12 12 11 12 13 14 15 17 17 16 16 17 17 17 15 16 16 16 16 19 20 20 18 18 17 15 15 14 13 14 13 13 12 12 12 12 12 13 10 9 8 8 8 9 8 9 9 10
6 4 6 7 5 3 5 3 5 5 3 5 6 5 5 5 5 4 4 4 3 3 3 3 4 6 7 7 7 8 10 10 12 12 12 11 11 11 12 12 12 13 14 15 15 16 16 16 15 16 17 17 16 15 15 16 15 16 17 18 17 17 17 15 15 14 13 14 13 13 13 13 12 12 12 10 10 8 8 8 8 9 9 9 10 10
6 6 7 11 12 10 9 9 7 5 7 8 7 7 7 7 6 5 4 2 2 2 4 3 3 6 5 7 6 8 9 10 11 12 12 11 10 10 11 12 13 13 13 14 15 16 15 15 15 15 16 15 15 15 15 15 16 17 18 17 14 16 16 14 14 13 13 14 13 11 13 13 14 14 11 11 11 10 9 8 8 9 10 9 10 10
6 4 4 4 8 10 12 12 11 11 12 10 7 7 6 4 4 5 5 4 4 4 3 3 3 5 6 6 6 7 8 9 9 11 12 11 10 10 11 12 12 13 13 14 14 15 14 14 14 15 15 15 14 15 14 15 15 16 18 17 16 15 17 16 15 13 14 13 12 13 13 12 13 12 12 12 12 11 11 11 10 10 11 12 11 11
9 11 9 9 9 9 8 8 6 7 5 6 5 4 6 5 6 5 5 5 5 4 3 3 4 4 5 5 5 6 8 8 9 10 11 10 10 11 11 12 12 12 13 13 12 12 13 13 14 14 14 14 14 14 14 14 15 16 17 16 14 15 16 17 16 15 14 13 12 13 14 13 12 13 12 12 13 13 13 11 11 12 12 14 16 22
10 10 8 9 8 7 5 6 5 8 9 7 5 4 5 6 7 7 7 6 4 3 2 3 4 4 4 3 3 5 6 8 9 8 9 8 9 10 11 11 12 12 12 12 11 12 13 13 13 13 14 14 13 14 14 14 15 16 16 14 13 13 13 14 14 13 12 13 13 14 14 13 12 13 12 12 13 14 16 16 14 12 15 18 18 19
Wind_Direction
304 268 3 21 16 16 3 347 339 326 313 294 268 264 278 284 281 264 266 63 348 298 279 299 295 285 282 282 284 284 276 272 274 275 274 269 268 269 275 286 290 281 288 326 336 62 28 328 276 263 251 234 237 168 181 185 186 184 178 186 198 193 189 215 224 207 195 189 192 197 195 195 187 188 190 197 204 212 214 209 207 204 198 203 196 198
249 245 62 31 5 348 347 326 308 276 257 273 284 271 279 273 268 320 300 342 328 311 295 287 290 284 288 288 283 282 277 271 273 274 269 271 275 284 275 270 277 291 297 298 298 350 37 20 320 238 241 236 227 185 194 201 193 195 194 197 200 203 181 194 206 209 208 204 201 198 199 192 186 180 181 191 200 206 208 208 211 205 201 204 199 197
202 47 48 10 348 318 291 295 263 280 277 250 265 297 282 281 358 285 264 339 296 297 293 304 296 292 289 284 279 274 278 300 294 303 312 302 292 275 290 317 308 303 301 299 305 318 345 17 359 255 238 240 231 206 191 202 201 198 194 202 200 200 208 186 192 203 208 206 210 207 205 200 195 188 181 187 196 199 204 206 210 209 200 204 206 200
192 73 27 352 321 314 280 232 275 254 250 264 288 276 296 347 314 329 266 298 304 295 292 296 292 285 273 263 7 46 49 339 338 341 322 350 342 343 347 344 332 323 328 322 323 331 336 347 349 335 282 249 219 224 213 216 202 204 201 199 198 195 200 201 194 200 206 210 206 210 215 200 184 173 183 190 195 199 203 206 208 209 204 204 209 206
43 24 2 307 311 317 330 42 343 320 304 277 283 287 290 326 318 310 316 313 298 273 246 278 281 279 53 129 142 138 95 353 72 117 74 35 27 19 10 15 8 353 341 332 331 336 341 343 354 351 333 293 233 216 217 219 211 207 211 209 204 195 193 204 199 196 199 186 195 200 200 193 186 176 180 186 195 205 206 209 207 208 201 201 210 211
80 31 317 330 21 358 336 318 23 336 292 295 270 342 345 311 302 297 296 302 299 304 114 343 307 276 138 284 292 338 316 100 75 23 28 31 32 23 15 13 9 359 357 342 342 344 345 344 341 344 337 330 268 234 223 217 220 214 213 213 208 205 195 207 206 197 196 192 191 190 191 185 186 181 182 191 202 206 207 206 205 204 200 200 204 211
15 51 21 4 348 345 335 25 38 323 312 292 71 351 324 297 289 284 283 287 280 295 39 354 295 294 192 224 45 355 360 119 81 49 27 22 20 15 9 2 5 357 357 353 356 359 356 348 340 336 339 329 313 276 225 223 221 222 214 207 208 207 209 208 204 197 196 200 197 198 201 200 192 189 191 197 200 202 204 203 204 204 204 202 202 209
6 43 31 11 357 359 360 351 16 336 308 340 38 316 296 287 279 280 283 270 276 306 266 221 347 303 285 85 24 61 17 71 40 17 20 21 10 12 4 359 360 358 358 354 357 359 358 355 351 348 345 329 323 315 286 226 222 220 224 213 206 211 212 210 201 199 198 200 202 205 206 202 200 199 194 191 197 198 196 196 200 204 204 203 203 207
358 58 21 20 13 31 17 354 347 325 298 342 332 305 291 286 290 288 275 273 299 291 71 31 354 261 210 64 74 32 75 19 359 358 357 3 359 1 1 353 353 352 355 353 356 357 357 353 349 351 349 346 332 324 299 258 224 222 221 224 214 210 216 213 203 198 200 206 207 207 205 206 209 201 195 183 188 195 194 193 193 204 205 203 206 207
82 29 32 23 19 27 1 14 1 346 322 359 316 297 273 268 271 279 268 265 161 254 65 21 359 319 71 63 82 38 18 359 349 356 357 355 351 350 350 343 345 344 346 346 350 350 356 352 349 348 346 356 356 336 316 287 248 226 220 221 218 216 214 211 204 199 197 207 212 208 204 205 204 202 202 188 187 198 195 199 197 201 202 196 199 210
108 97 44 40 19 351 334 21 343 320 322 300 288 294 300 194 257 174 300 334 172 169 68 13 357 348 357 46 33 25 15 0 354 353 351 346 342 338 340 333 337 337 338 337 339 344 346 349 347 347 349 354 358 346 338 317 271 236 228 225 224 215 212 213 209 199 201 209 222 214 201 203 199 204 206 201 193 193 197 198 199 201 199 202 200 203
131 152 150 60 11 347 327 186 150 277 311 323 333 319 194 216 144 212 164 210 267 96 34 348 339 318 270 71 46 20 11 9 353 342 337 334 333 334 331 327 328 331 331 330 333 336 339 341 346 346 345 348 351 353 348 338 315 266 231 231 230 220 213 206 208 206 205 209 216 234 226 191 199 205 206 207 203 197 202 201 198 198 199 204 209 200
83 61 159 118 8 1 358 348 84 109 6 1 357 359 318 45 94 71 105 78 28 17 21 344 345 202 52 57 9 18 360 355 348 343 336 331 326 324 324 324 320 321 325 324 329 329 331 335 339 340 338 338 344 348 347 338 325 299 263 230 230 226 223 212 210 210 206 204 207 210 222 217 192 202 212 206 204 203 201 198 196 194 196 201 206 203
91 75 44 104 168 12 8 16 21 39 26 26 24 11 5 32 55 32 46 47 83 96 34 15 40 39 61 46 13 7 359 354 347 341 337 330 323 321 319 319 316 315 316 320 320 320 324 327 331 331 330 330 330 335 337 336 323 313 284 256 231 230 227 224 222 220 221 222 220 207 206 213 204 205 220 220 208 201 200 196 191 191 196 197 203 205
173 178 52 349 53 350 31 26 8 18 34 36 44 29 39 35 23 23 19 25 14 8 23 23 270 10 340 66 22 13 2 0 355 349 347 338 333 325 316 307 310 308 309 314 317 319 320 324 323 323 324 324 323 325 330 324 322 312 299 271 250 232 225 224 225 222 224 227 230 227 203 211 213 207 218 223 218 208 206 205 191 197 200 195 198 207
43 70 81 35 19 356 38 25 17 304 58 38 54 29 50 43 334 9 32 12 12 14 41 31 25 1 25 102 24 10 360 360 355 349 343 342 339 337 330 324 317 315 312 315 320 317 319 319 317 317 320 321 320 320 320 316 313 299 293 289 273 249 230 221 223 228 223 225 227 225 226 219 207 209 216 227 223 221 210 199 185 194 192 187 201 208
181 101 77 129 20 47 44 30 30 355 33 7 38 48 56 71 313 305 172 349 236 234 49 322 358 8 32 103 1 4 358 359 354 350 347 345 344 341 336 331 321 314 310 316 317 316 316 316 315 315 316 317 316 315 313 310 304 295 286 280 275 262 243 229 220 225 226 225 227 227 224 225 221 215 220 222 224 224 219 211 192 195 193 184 190 197
311 96 146 228 130 88 94 33 52 35 356 354 56 50 28 331 304 326 5 23 20 32 35 357 10 7 347 352 356 353 357 352 354 352 348 346 346 342 337 337 333 326 320 312 308 313 312 312 313 312 312 313 313 311 307 304 302 288 278 271 275 271 254 238 226 219 222 226 227 227 224 224 221 218 220 219 219 221 221 216 208 188 190 188 184 196
324 174 132 108 105 102 179 214 97 70 31 48 54 360 282 87 162 28 256 7 354 17 346 31 3 27 9 356 352 359 354 350 346 348 348 344 342 342 337 339 338 330 324 320 311 309 311 313 313 313 311 310 309 307 304 304 296 283 272 267 265 266 263 252 235 222 220 224 226 225 224 222 220 219 219 221 210 203 210 214 210 198 186 186 190 202
235 292 127 141 202 135 33 9 38 39 100 86 336 50 33 257 12 9 46 325 283 336 351 10 347 27 23 8 353 352 352 346 344 349 343 342 339 338 339 342 341 336 331 325 319 308 309 315 314 312 310 308 310 312 311 303 297 295 285 269 264 262 259 255 243 229 223 219 222 226 223 222 222 221 221 219 206 191 206 212 209 194 193 185 193 197
302 298 329 115 127 210 127 40 44 19 18 41 40 31 19 15 80 38 72 3 7 342 7 342 330 30 26 4 0 356 351 348 347 349 338 341 344 338 341 335 337 336 332 331 326 318 307 312 316 314 310 307 307 307 306 308 309 301 292 277 271 271 259 247 243 237 230 223 220 221 223 221 222 221 221 218 207 202 196 202 207 202 189 176 185 179
284 305 331 106 168 64 76 55 47 40 35 44 36 45 11 12 36 4 107 171 7 347 4 326 321 338 32 8 6 354 354 349 352 353 346 340 342 335 337 341 346 343 343 336 333 328 319 312 313 313 312 308 309 311 315 315 310 308 309 308 296 274 258 243 239 239 237 232 228 223 221 221 222 221 223 225 221 211 199 189 200 187 190 182 180 178
327 333 285 172 53 74 83 107 79 56 63 50 35 61 29 43 343 344 12 21 317 30 295 313 302 4 44 18 1 350 351 353 353 357 342 344 333 333 337 342 345 346 348 339 341 337 333 323 315 319 316 315 316 316 316 316 314 316 314 311 305 299 291 275 257 242 236 236 234 231 228 223 220 217 218 219 211 214 206 186 174 169 178 188 183 186
227 277 241 133 121 112 122 127 124 108 207 157 72 54 45 37 28 11 354 349 311 351 344 347 314 11 51 11 351 349 356 347 350 2 352 341 329 336 333 337 340 349 353 349 345 341 337 334 324 314 314 313 315 313 317 316 313 313 315 313 309 307 300 289 259 243 236 230 233 234 233 232 231 225 212 225 230 214 206 193 176 175 183 190 184 179
261 109 306 234 181 163 146 145 170 261 252 51 38 49 61 72 102 334 323 340 296 36 338 306 321 337 11 345 350 351 350 348 350 359 358 346 341 341 335 332 334 337 342 353 351 345 340 335 333 327 319 317 317 313 313 312 313 311 313 311 313 311 303 289 276 251 235 229 227 230 233 233 229 232 221 211 211 212 204 196 191 182 193 191 186 182
273 350 308 318 303 286 269 309 48 85 53 76 48 78 50 31 20 238 258 237 307 44 302 284 322 335 337 335 344 351 349 348 350 351 353 351 346 349 345 339 337 332 336 344 346 346 344 339 332 328 327 323 322 315 304 303 303 309 312 315 313 306 301 292 284 268 245 232 226 224 229 231 230 230 228 219 220 215 203 194 192 180 193 195 192 190
305 310 284 323 328 349 15 19 73 324 36 44 52 37 42 41 169 279 270 279 344 332 293 52 333 323 327 340 343 350 350 346 342 347 348 350 350 348 347 350 346 339 334 339 343 344 340 337 334 330 326 322 318 311 305 297 294 301 315 313 311 308 305 298 285 273 254 237 229 225 224 227 229 227 226 228 222 221 212 196 189 183 190 196 193 182
278 267 89 309 303 305 331 297 68 257 216 222 278 30 5 5 326 312 329 359 333 298 321 13 337 327 324 330 342 343 345 342 339 343 344 347 349 349 350 347 347 352 349 344 340 338 339 336 332 328 325 323 319 317 307 297 296 300 315 315 315 311 305 296 280 272 264 244 232 228 224 223 225 227 226 222 225 225 218 212 192 184 188 190 193 191
316 289 97 345 297 305 293 272 195 199 238 227 234 315 360 348 295 312 299 309 316 321 319 331 327 321 319 332 340 342 340 336 335 341 341 342 343 350 351 349 346 349 348 347 342 335 338 337 333 328 326 323 321 318 316 311 306 306 312 316 312 310 306 298 287 272 263 252 239 232 227 223 223 226 227 222 223 221 216 216 209 192 186 186 191 193
292 259 68 343 307 291 237 212 190 238 223 215 221 234 341 358 337 295 285 295 295 298 309 318 323 308 319 340 336 339 335 334 333 336 343 346 348 353 354 352 348 347 347 346 343 340 339 336 333 330 329 327 325 322 318 313 309 317 318 313 313 310 310 304 289 277 263 256 247 236 230 223 222 223 225 226 226 224 218 216 212 202 190 188 194 201
275 102 123 154 259 239 165 194 209 244 240 221 206 220 289 340 342 347 294 293 280 275 309 322 311 310 343 346 331 333 334 333 334 340 347 340 350 352 354 353 353 351 347 345 345 341 338 336 335 333 332 331 326 323 317 312 312 310 312 310 310 315 318 300 298 280 264 258 254 246 234 225 221 223 223 222 224 225 223 219 213 208 205 202 200 203
249 267 148 245 277 249 191 233 247 258 235 234 212 210 280 348 352 11 335 324 287 287 298 298 317 333 334 330 330 331 335 336 340 340 342 343 352 348 350 354 354 353 348 348 344 340 342 340 340 341 337 332 329 324 318 317 319 312 308 312 312 317 317 311 303 285 274 259 254 250 235 225 221 221 226 228 223 221 218 217 210 209 213 213 211 211
279 288 268 288 286 306 155 258 304 264 235 220 220 205 152 355 334 322 321 328 267 237 285 326 329 327 328 331 330 333 336 336 337 339 335 343 349 349 350 353 353 350 345 348 344 342 347 343 344 344 339 333 335 337 333 331 330 323 318 315 314 315 319 313 305 299 281 266 257 251 240 228 222 221 222 222 224 221 215 214 211 211 210 212 213 213
276 266 283 332 282 307 204 290 286 264 263 301 112 108 120 8 331 324 337 335 335 228 320 317 317 326 328 334 332 333 334 335 332 332 336 344 342 350 350 353 351 348 344 345 346 342 347 343 345 345 341 338 338 341 347 348 338 328 320 314 313 322 333 332 327 306 294 277 263 255 247 235 225 226 226 224 220 215 214 214 217 215 214 214 210 210
244 251 279 305 280 294 312 277 262 253 294 122 169 133 152 339 312 319 318 335 12 297 317 325 330 330 332 331 329 328 327 323 328 324 332 352 350 351 346 348 348 352 347 351 347 346 342 340 344 346 344 346 343 339 342 344 337 331 331 333 330 331 335 343 342 346 337 326 312 294 270 239 233 232 228 228 217 216 215 214 213 211 209 208 208 207
227 234 271 260 291 286 269 270 269 359 100 215 175 157 103 251 228 303 315 102 53 358 345 329 337 331 331 329 329 328 326 322 313 296 19 359 356 349 344 345 348 353 353 348 347 346 344 340 344 350 348 344 344 343 345 344 338 335 338 340 342 336 336 347 350 348 348 342 340 321 289 281 269 253 242 224 226 220 217 216 212 210 208 208 208 206
242 264 247 278 106 287 308 299 285 304 254 168 152 199 205 301 340 340 324 326 82 1 350 341 334 333 331 330 330 329 326 313 296 24 35 4 351 346 342 343 344 350 351 348 345 342 341 333 339 342 347 349 348 351 348 342 341 341 344 347 347 342 343 345 350 348 342 339 339 340 335 305 300 289 280 292 283 246 223 220 216 214 208 208 206 204
221 250 343 273 260 298 302 302 292 268 266 148 178 127 95 194 327 263 281 263 109 360 357 343 335 335 333 332 331 331 321 314 337 1 15 357 346 340 337 337 341 349 351 347 343 339 341 338 336 340 351 351 354 353 348 344 343 344 347 346 347 350 347 350 349 346 339 335 334 330 330 317 290 288 296 258 245 270 283 279 241 221 214 213 207 205
211 242 264 266 268 263 265 273 283 290 325 101 155 142 143 215 214 203 241 208 50 352 357 348 337 336 335 334 331 330 332 338 337 345 359 342 338 336 333 333 341 345 349 348 349 345 342 352 347 340 346 356 357 352 353 352 351 351 351 349 349 351 347 344 342 340 335 331 328 328 331 333 325 304 274 272 269 246 225 253 282 282 242 222 215 211
200 213 233 249 254 252 274 270 271 249 272 169 157 145 127 162 235 248 274 28 24 357 355 346 337 335 333 333 330 329 342 336 331 333 336 328 330 329 331 334 338 344 348 346 348 347 339 340 347 352 357 357 355 349 354 353 354 356 354 351 353 351 347 342 336 331 327 326 325 326 329 331 326 309 280 267 260 247 237 235 229 261 286 262 229 223
204 229 226 255 264 213 184 260 268 259 236 174 172 143 149 152 238 262 329 346 353 344 350 341 331 331 331 329 334 326 340 330 315 315 319 323 325 330 331 332 336 337 344 348 350 346 348 346 349 345 354 356 353 352 353 356 353 355 354 351 353 351 344 335 330 328 330 327 326 326 327 330 323 322 319 305 281 265 245 220 228 232 253 273 276 229
239 247 240 241 255 262 245 253 263 282 44 159 142 153 148 176 256 320 28 335 330 339 344 338 323 329 327 324 322 318 315 316 312 314 320 326 326 326 330 330 333 338 342 343 347 353 348 342 350 345 345 355 354 350 351 355 355 353 351 350 352 346 338 332 330 330 331 332 328 328 329 328 327 324 316 312 311 294 273 267 248 226 237 228 249 273
256 225 249 228 233 240 245 254 269 273 143 189 133 152 173 249 358 355 323 334 353 326 331 332 327 324 328 318 320 313 312 314 315 317 322 323 325 328 329 333 335 338 339 343 344 352 348 340 346 345 344 347 354 352 350 351 353 353 351 354 349 342 340 335 331 333 337 337 335 336 332 328 326 325 319 315 313 306 293 247 238 236 223 224 224 228
258 253 247 256 220 255 241 231 246 13 107 164 189 258 177 250 306 310 318 320 355 326 323 328 329 335 321 316 319 318 316 316 319 324 322 323 325 325 327 328 330 335 335 343 344 349 343 342 342 342 344 347 352 352 352 351 349 349 351 352 346 341 338 339 337 335 340 344 343 340 337 334 330 327 320 318 315 301 291 283 263 242 233 219 217 216
176 234 309 289 147 232 262 288 28 114 167 209 245 270 276 275 255 288 291 306 311 337 356 300 332 326 324 319 317 315 318 327 323 325 325 326 325 325 327 330 334 336 334 340 338 344 340 340 340 343 340 345 352 351 352 353 349 346 347 348 346 345 342 340 338 338 336 345 349 348 344 342 339 335 336 330 314 304 299 286 277 256 244 246 237 230
82 281 337 270 259 252 267 275 277 262 255 255 244 258 267 260 224 227 250 279 299 319 310 315 314 317 319 325 316 318 322 324 322 325 326 326 325 325 329 329 332 331 330 331 334 339 336 337 341 345 341 342 351 350 350 350 351 349 345 344 346 344 340 336 340 339 339 346 346 350 351 345 341 339 332 321 312 306 290 289 283 273 262 243 232 238
232 215 234 244 256 294 268 202 243 273 266 249 256 246 242 250 259 235 237 252 292 298 297 290 300 305 310 314 312 316 319 322 322 324 327 327 326 328 331 334 336 333 332 332 336 338 339 343 344 345 346 343 347 349 349 349 350 349 346 345 344 344 341 336 340 338 342 346 346 349 351 345 346 337 329 327 324 315 307 296 282 274 266 257 249 239
223 146 254 248 257 250 260 265 255 237 257 262 264 264 250 245 231 217 232 260 271 263 277 291 288 289 304 305 320 315 314 320 325 327 326 328 328 331 333 333 331 329 333 335 339 341 339 344 345 346 347 346 345 344 343 345 345 347 347 342 339 344 344 341 344 339 343 347 349 349 350 343 339 333 332 330 325 316 311 304 298 290 276 268 260 249
41 122 248 249 253 251 253 251 257 264 261 253 246 245 260 265 218 202 201 207 214 238 247 260 264 293 299 304 312 308 311 322 328 326 322 323 326 332 336 331 330 334 338 340 341 341 344 346 348 347 347 346 345 344 343 345 345 346 347 344 339 340 344 342 340 341 345 349 350 352 347 342 340 337 331 326 322 318 315 312 309 300 292 284 278 268
246 248 247 255 253 253 256 268 265 257 248 210 205 245 253 234 225 227 209 219 221 233 234 271 279 272 281 290 299 307 313 321 329 328 322 324 327 331 331 334 333 336 338 340 340 344 345 348 349 347 348 347 346 345 345 343 347 349 349 344 339 340 345 342 340 343 344 346 349 349 344 342 341 338 332 328 324 321 315 306 281 273 280 281 286 301
252 253 258 247 246 255 257 259 269 275 283 280 282 289 254 220 212 221 227 232 224 216 220 253 277 279 274 275 292 307 319 325 329 327 319 324 328 332 332 336 336 338 342 344 348 347 349 349 349 347 349 350 348 346 347 346 347 350 350 344 340 340 340 344 341 339 338 342 346 344 339 339 338 338 332 326 324 323 322 318 309 273 252 253 257 257